Starlink 5391

operational
NORAD ID: 54833 Int'l Des: 2022-177 Owner: SPXS Country: US Constellation: starlink
LEOCIRCULAR

About Starlink 5391

Description loading...

Live Position

Loading 3D Globe...

Upcoming Passes

Altitude History

Altitude vs Time

uPlot chart will show altitude changes over time

Two-Line Element Set

1 54833U 22177P 25347.14795195 .00047203 00000-0 31760-2 0 9999
2 54833 42.9982 243.0229 0002130 243.1869 116.8757 15.06020230163947
Epoch: Dec 13, 2025 • Age: 15 hours

Current Status

Altitude 556.6 km
Velocity 7.58 km/s
Sub-Earth Point -34.52°S, 100.23°E
Launch Date Dec 28, 2022
Age 2.9 years
Type internet

Technical Details

Classification Payload
Mass 305.00 kg
Dry Mass 290.00 kg
Total Mass 305.00 kg
Length 0.20 m
Diameter 2.80 m
Span 9.00 m
Shape Box + pan
Manufacturer SPXS
Bus Type Starlink
Phase Status In Orbit
Owner/State SPXS/US

Large Constellations

Loading constellations...